This is the latest recevied weather packets stored in our database for station/object KC8QDR-1. If no packets are shown the sender has not sent any weather packets the latest 10 day(s).
| Time | Temp. | Humidity | Pressure | Rain* | Wind** | Luminosity | Snow |
|---|---|---|---|---|---|---|---|
| 1777840725 | 16.67° C | 42% | 1017.4 hPa | 0 mm | 0 m/s | - | - |
| 1777840124 | 16.67° C | 42% | 1017.5 hPa | 0 mm | 0 m/s | - | - |
| 1777839525 | 16.11° C | 42% | 1017.5 hPa | 0 mm | 0 m/s | - | - |
| 1777838927 | 16.11° C | 38% | 1017.8 hPa | 0 mm | 0 m/s | - | - |
| 1777838325 | 16.11° C | 42% | 1018.2 hPa | 0 mm | 0 m/s | - | - |
| 1777837724 | 16.67° C | 40% | 1018.3 hPa | 0 mm | 0 m/s | - | - |
| 1777837125 | 16.11° C | 44% | 1018.8 hPa | 0 mm | 0 m/s | - | - |
| 1777836524 | 16.11° C | 45% | 1019.2 hPa | 0 mm | 0 m/s | - | - |
| 1777835926 | 16.67° C | 43% | 1019.6 hPa | 0 mm | 0 m/s | - | - |
| 1777835324 | 15.56° C | 39% | 1019.8 hPa | 0 mm | 0 m/s | - | - |
| 1777834725 | 16.67° C | 41% | 1020 hPa | 0 mm | 0 m/s | - | - |
| 1777834124 | 16.11° C | 42% | 1020.1 hPa | 0 mm | 0 m/s | - | - |
| 1777833527 | 16.67° C | 40% | 1020.2 hPa | 0 mm | 0 m/s | - | - |
| 1777832924 | 16.11° C | 41% | 1020.1 hPa | 0 mm | 0 m/s | - | - |
| 1777832325 | 16.11° C | 46% | 1020.2 hPa | 0 mm | 0 m/s | - | - |
| 1777831724 | 15.56° C | 48% | 1020.3 hPa | 0 mm | 0 m/s | - | - |
| 1777831125 | 15.56° C | 43% | 1020.4 hPa | 0 mm | 0 m/s | - | - |
| 1777830524 | 16.11° C | 45% | 1020.5 hPa | 0 mm | 0 m/s | - | - |
| 1777829925 | 15.56° C | 45% | 1020.7 hPa | 0 mm | 0 m/s | - | - |
| 1777829324 | 15.56° C | 45% | 1020.8 hPa | 0 mm | 0 m/s | - | - |
| 1777828725 | 15° C | 44% | 1020.9 hPa | 0 mm | 0 m/s | - | - |
| 1777828124 | 15° C | 43% | 1021 hPa | 0 mm | 0 m/s | - | - |
| 1777827525 | 14.44° C | 44% | 1021.2 hPa | 0 mm | 0 m/s | - | - |
| 1777826924 | 13.89° C | 49% | 1021.1 hPa | 0 mm | 0 m/s | - | - |
| 1777826327 | 13.89° C | 48% | 1021.2 hPa | 0 mm | 0 m/s | - | - |
* Rain latest hour (hover to see other rain measurements)
** Current wind speed in m/s (hover to see current wind gust speed)